"Pseudo-MPEC" for ABC0247

Created 2025 Dec 1 11:35:03 UT using Find_Orb

Click here for an explanation of pseudo-MPECs

 
 Astrometry: 
     ABC0247*KB2025 11 29.99552 07 09 31.96 +24 41 49.5    ~BUKZ 20.1 GXNEOCPJ56
     ABC0247 KB2025 11 30.01384 07 09 37.89 +24 41 36.7    ~BUKZ       XNEOCPJ56
     ABC0247 KB2025 11 30.03179 07 09 43.86 +24 41 27.2    ~BUKZ 19.0 GXNEOCPJ56

Station data:
(J56) Observatorio La Avejerilla  (N27.962860 W15.546400)  Canary Islands
   (Spain).

Orbital elements:  ABC0247
   Perihelion 2026 Jan 3.644868 +/- 25.3 TT = 15:28:36.6 (JD 2461044.144868)
Epoch 2025 Nov 30.0 TT = JDT 2461009.5   Earth MOID: 0.0002   Ju: 0.3360
M 359.942412703 +/- 29              Ve: 0.0138   Me: 0.0527   Ma: 0.0119
n   0.001662217 +/-                 Peri.  329.446520 +/- 70     AutoNEOCP
a  70.57932960 +/-                  Node   253.865332 +/- 34
e   0.99901921 +/- 0.239            Incl.    9.960670 +/- 3.8
P 592.94757                H 22.45  G  0.15   U 10.9  SR
q 0.069222937 +/- 0.378    Q 141.0894362 +/- 31.6         (J2000 ecliptic)
From 3 observations 2025 Nov. 29-30 (52.2 min); mean residual 0".67
Residuals in arcseconds: 
251129 J56  .37+  .56+    251130 J56  .74-  1.1-    251130 J56  .37+  .56+    

Ephemerides (geocentric):
Date (UTC) HH   RA             Dec           delta  r     elong  mag " sig PA
---- --------  ------------   ------------  ------ ------ -----  --- --------
2025 12 01 12  07 21 06.513   +24 15 47.84  .10391 1.0685 140.7 19.1  23d  70
2025 12 01 13  07 21 33.083   +24 14 43.48  .10283 1.0676 140.7 19.1  23d  71
2025 12 01 14  07 22 00.199   +24 13 37.47  .10176 1.0666 140.6 19.1  24d  71
2025 12 01 15  07 22 27.878   +24 12 29.75  .10068 1.0657 140.5 19.1  26d  70
2025 12 01 16  07 22 56.137   +24 11 20.26  .09960 1.0647 140.5 19.0  27d  71
2025 12 01 17  07 23 24.995   +24 10 08.92  .09852 1.0638 140.4 19.0  28d  71
2025 12 01 18  07 23 54.471   +24 08 55.67  .09745 1.0628 140.3 19.0  28d  71
2025 12 01 19  07 24 24.586   +24 07 40.43  .09637 1.0619 140.2 19.0  29d  71
2025 12 01 20  07 24 55.360   +24 06 23.12  .09530 1.0609 140.2 19.0  29d  71
2025 12 01 21  07 25 26.816   +24 05 03.67  .09422 1.0600 140.1 18.9  30d  71
2025 12 01 22  07 25 58.977   +24 03 41.98  .09315 1.0590 140.0 18.9  30d  71
2025 12 01 23  07 26 31.866   +24 02 17.96  .09207 1.0581 139.9 18.9  31d  71
2025 12 02 00  07 27 05.509   +24 00 51.51  .09100 1.0571 139.8 18.9  32d  71
2025 12 02 01  07 27 39.932   +23 59 22.55  .08993 1.0562 139.7 18.8  33d  71
2025 12 02 02  07 28 15.162   +23 57 50.95  .08885 1.0552 139.6 18.8  33d  71
2025 12 02 03  07 28 51.228   +23 56 16.60  .08778 1.0543 139.6 18.8  34d  71
2025 12 02 04  07 29 28.161   +23 54 39.40  .08671 1.0533 139.5 18.8  35d  71
2025 12 02 05  07 30 05.990   +23 52 59.20  .08564 1.0524 139.3 18.7  35d  71
2025 12 02 06  07 30 44.751   +23 51 15.89  .08457 1.0514 139.2 18.7  36d  71
2025 12 02 07  07 31 24.477   +23 49 29.31  .08350 1.0505 139.1 18.7  37d  71
2025 12 02 08  07 32 05.204   +23 47 39.32  .08243 1.0495 139.0 18.7  38d  71
2025 12 02 09  07 32 46.971   +23 45 45.76  .08136 1.0486 138.9 18.6  39d  71
2025 12 02 10  07 33 29.817   +23 43 48.47  .08029 1.0476 138.8 18.6  40d  71
2025 12 02 11  07 34 13.785   +23 41 47.27  .07923 1.0467 138.6 18.6  41d  70
2025 12 02 12  07 34 58.919   +23 39 41.97  .07816 1.0457 138.5 18.6  42d  70
2025 12 02 13  07 35 45.265   +23 37 32.37  .07710 1.0448 138.4 18.5  43d  70
2025 12 02 14  07 36 32.873   +23 35 18.26  .07603 1.0438 138.2 18.5  44d  71
2025 12 02 15  07 37 21.793   +23 32 59.42  .07497 1.0429 138.1 18.5  45d  71
2025 12 02 16  07 38 12.081   +23 30 35.60  .07390 1.0419 137.9 18.4  45d  71
2025 12 02 17  07 39 03.793   +23 28 06.55  .07284 1.0409 137.8 18.4  46d  71
2025 12 02 18  07 39 56.989   +23 25 32.00  .07178 1.0400 137.6 18.4  46d  71
2025 12 02 19  07 40 51.735   +23 22 51.66  .07072 1.0390 137.4 18.4  47d  71
2025 12 02 20  07 41 48.096   +23 20 05.21  .06966 1.0381 137.3 18.3  47d  71
2025 12 02 21  07 42 46.145   +23 17 12.33  .06860 1.0371 137.1 18.3  48d  71
2025 12 02 22  07 43 45.956   +23 14 12.66  .06755 1.0362 136.9 18.3  48d  71
2025 12 02 23  07 44 47.610   +23 11 05.82  .06649 1.0352 136.7 18.2  48d  71
2025 12 03 00  07 45 51.190   +23 07 51.41  .06544 1.0342 136.5 18.2  49d  71
2025 12 03 01  07 46 56.787   +23 04 28.98  .06439 1.0333 136.3 18.2  49d  71
2025 12 03 02  07 48 04.495   +23 00 58.06  .06333 1.0323 136.0 18.1  50d  71
2025 12 03 03  07 49 14.416   +22 57 18.17  .06228 1.0314 135.8 18.1  50d  71
2025 12 03 04  07 50 26.655   +22 53 28.74  .06124 1.0304 135.6 18.1  50d  71
2025 12 03 05  07 51 41.328   +22 49 29.20  .06019 1.0294 135.3 18.1  50d  71
2025 12 03 06  07 52 58.555   +22 45 18.92  .05914 1.0285 135.0 18.0  51d  71
2025 12 03 07  07 54 18.464   +22 40 57.22  .05810 1.0275 134.8 18.0  51d  72
2025 12 03 08  07 55 41.194   +22 36 23.36  .05706 1.0266 134.5 18.0  51d  72
2025 12 03 09  07 57 06.891   +22 31 36.56  .05602 1.0256 134.2 17.9  51d  72
2025 12 03 10  07 58 35.711   +22 26 35.94  .05498 1.0246 133.9 17.9  51d  72
2025 12 03 11  08 00 07.821   +22 21 20.58  .05394 1.0237 133.6 17.9  52d  72